Flag for U.S.A. Weather past 2 weeks in Bowling Green, Kentucky, U.S.A.

Now
N/A

Sunny.


Feels Like: N/A
Forecast: 77 / 93 °F
Wind: No wind

Location: Glasgow Municipal Airport

Current Time: Jul 28, 2015 at 7:44:15 PM

Latest Report: Jul 28, 2015 at 7:15 PM


Visibility: 10 mi

Pressure: 29.98 "Hg

Humidity: N/A

Dew point: N/A

Location of Bowling GreenLocation

Historic Weather in Bowling Green — Graph

°F

Bowling Green temperature yesterday

Maximum temperature yesterday: 90 °F (at 2:55 PM)
Minimum temperature yesterday: 72 °F (at 3:35 AM)
Average temperature yesterday: 80 °F

Past Weeks' High & Low Weather Summary

 TemperatureHumidityPressure
High91 °F (Jul 18, 4:35 PM)100% (Jul 14, 10:15 PM)30.05 "Hg (Jul 14, 10:15 PM)
Low63 °F (Jul 25, 5:15 AM)47% (Jul 26, 3:15 PM)29.67 "Hg (Jul 14, 3:35 PM)
Average75 °F85%29.94 "Hg
* Reported Jul 13 6:35 PM — Jul 28 6:15 PM, Bowling Green, Weather by CustomWeather, © 2015

Note: Actual official high and low records may vary slightly from our data, if they occured in-between our weather recording intervals... More about our weather records

Advertising

Bowling Green weather history for previous 24 hours

 ConditionsComfort  
Time TempWeatherWind HumidityBarometerVisibility
6:15 PM
Tue, Jul 28
N/ASunny.6 mphN/A29.95 "Hg10 mi
5:55 PMN/ASunny.6 mphN/A29.96 "Hg10 mi
5:15 PMN/ASunny.3 mphN/A29.97 "Hg10 mi
4:55 PMN/ASunny.No windN/A29.98 "Hg10 mi
4:15 PMN/AThundershowers.6 mphN/A29.98 "Hg10 mi
3:55 PMN/ASunny.6 mphN/A29.98 "Hg10 mi
3:35 PMN/ALight rain.6 mphN/A29.98 "Hg7 mi
3:15 PMN/AThundershowers.13 mphN/A29.99 "Hg10 mi
2:55 PMN/AScattered clouds.8 mphN/A29.99 "Hg10 mi
2:35 PMN/ASunny.7 mphN/A29.99 "Hg10 mi
2:15 PMN/ASunny.10 mphN/A29.98 "Hg10 mi
1:15 PM88 °FThundershowers. Scattered clouds.9 mph63%30.01 "Hg10 mi
12:55 PM87 °FPartly sunny.13 mph64%30.01 "Hg10 mi
12:35 PM89 °FPartly sunny.8 mph61%30.00 "Hg10 mi
12:15 PM90 °FScattered clouds.3 mph60%30.01 "Hg10 mi
11:55 AM90 °FScattered clouds.8 mph60%30.01 "Hg10 mi
11:15 AM89 °FSunny.5 mph59%30.00 "Hg10 mi
10:55 AM89 °FSunny.5 mph59%30.01 "Hg10 mi
10:35 AM89 °FScattered clouds.3 mph58%30.01 "Hg10 mi
10:15 AM87 °FScattered clouds.5 mph59%30.01 "Hg10 mi
9:55 AM86 °FScattered clouds.No wind59%30.01 "Hg10 mi
9:35 AM85 °FScattered clouds.No wind63%30.01 "Hg10 mi
9:15 AM84 °FSunny.No wind63%30.01 "Hg10 mi
8:55 AM83 °FSunny.No wind68%30.01 "Hg10 mi
8:35 AM82 °FSunny.No wind69%30.01 "Hg10 mi
8:15 AM81 °FSunny.No wind71%30.01 "Hg10 mi
7:55 AM79 °FSunny.No wind78%30.01 "Hg10 mi
7:35 AM77 °FSunny.No wind85%30.00 "Hg10 mi
7:15 AM75 °FSunny.No wind88%30.00 "Hg10 mi
6:55 AM73 °FFog.No wind100%30.00 "Hg5 mi
6:35 AM72 °FFog.No wind100%30.00 "Hg5 mi
6:15 AM72 °FFog.No wind100%30.00 "Hg5 mi
5:55 AM72 °FFog.No wind100%29.99 "Hg5 mi
5:35 AM72 °FFog.No wind100%29.99 "Hg5 mi
5:15 AM72 °FPartly cloudy.No wind100%29.98 "Hg7 mi
4:55 AM72 °FPassing clouds.No wind100%29.98 "Hg7 mi
4:15 AM71 °FFog.No wind100%29.98 "Hg5 mi
3:55 AM71 °FFog.No wind100%29.98 "Hg5 mi
3:35 AM71 °FFog.No wind100%29.98 "Hg4 mi
3:15 AM72 °FFog.No wind100%29.97 "Hg5 mi
2:55 AM72 °FClear.No wind100%29.97 "Hg7 mi
2:15 AM73 °FClear.No wind100%29.97 "Hg7 mi
1:55 AM72 °FClear.No wind100%29.98 "Hg7 mi
1:35 AM73 °FClear.No wind100%29.98 "Hg7 mi
1:15 AM73 °FClear.No wind100%29.98 "Hg7 mi
12:55 AM73 °FClear.No wind100%29.98 "Hg7 mi
12:35 AM73 °FClear.No wind98%29.98 "Hg7 mi
12:15 AM73 °FClear.No wind100%29.99 "Hg7 mi
11:55 PM
Mon, Jul 27
73 °FClear.No wind100%29.99 "Hg7 mi
11:35 PM73 °FClear.No wind100%29.99 "Hg10 mi
11:15 PM74 °FClear.No wind100%29.99 "Hg10 mi
10:55 PM74 °FClear.No wind100%30.00 "Hg10 mi
10:35 PM74 °FClear.No wind99%30.00 "Hg10 mi
10:15 PM75 °FClear.No wind98%30.00 "Hg10 mi
9:55 PM76 °FClear.No wind94%30.00 "Hg10 mi
9:35 PM77 °FClear.No wind83%30.00 "Hg10 mi
9:15 PM77 °FClear.3 mph84%30.00 "Hg10 mi
8:55 PM78 °FClear.5 mph83%29.98 "Hg10 mi
8:35 PM80 °FClear.5 mph79%29.97 "Hg10 mi
8:15 PM80 °FClear.3 mph82%29.96 "Hg10 mi
7:55 PM82 °FWarm.No wind77%29.95 "Hg10 mi
7:35 PM82 °FSunny.No wind75%29.96 "Hg10 mi
7:15 PM83 °FSunny.5 mph73%29.95 "Hg10 mi
Weather by CustomWeather, © 2015

See weather overviewHow to use our weather pages